EA5ILC Weather Reports


time (UTC)temp
C
wind
direction
speed
KPH
gust
KPH
rain 1hr
cm
rain 24hr
cm
rain mn
cm
humidity
%
barometer
mb
20260507141555 18 335 4.8 11.3 0.00 0.00 0.00 75 1012.1
20260507140553 18 319 6.4 12.9 0.00 0.00 0.00 74 1012.1
20260507135550 18 330 4.8 11.3 0.00 0.00 0.00 73 1012.2
20260507134547 19 264 4.8 11.3 0.00 0.00 0.00 70 1012.3
20260507133545 20 335 4.8 17.7 0.00 0.00 0.00 68 1012.3
20260507132542 21 32 6.4 17.7 0.00 0.00 0.00 66 1012.5
20260507131559 21 28 8.0 14.5 0.00 0.00 0.00 62 1012.4
20260507130537 21 25 8.0 20.9 0.00 0.00 0.00 61 1012.6
20260507125534 21 333 8.0 22.5 0.00 0.00 0.00 60 1012.7
20260507124532 21 334 6.4 17.7 0.00 0.00 0.00 62 1012.8
20260507123529 20 325 6.4 17.7 0.00 0.00 0.00 66 1013.0
20260507122526 20 250 6.4 14.5 0.00 0.00 0.00 66 1013.1
20260507121524 21 295 4.8 17.7 0.00 0.00 0.00 64 1012.9
20260507120521 21 288 4.8 12.9 0.00 0.00 0.00 64 1013.1
20260507115518 21 293 4.8 12.9 0.00 0.00 0.00 65 1013.2
20260507113613 20 333 4.8 11.3 0.00 0.00 0.00 64 1013.5
20260507112631 21 332 4.8 9.7 0.00 0.00 0.00 63 1013.6
20260507111608 21 320 3.2 11.3 0.00 0.00 0.00 64 1013.8
20260507110626 20 0 6.4 17.7 0.00 0.00 0.00 62 1013.8
20260507105623 20 300 4.8 12.9 0.00 0.00 0.00 63 1013.9
20260507104601 20 15 3.2 11.3 0.00 0.00 0.00 59 1014.0
20260507103558 20 348 4.8 11.3 0.00 0.00 0.00 59 1014.0
20260507102555 20 2 4.8 14.5 0.00 0.00 0.00 58 1014.0
20260507101553 20 341 3.2 11.3 0.00 0.00 0.00 58 1014.0
20260507100550 20 26 3.2 12.9 0.00 0.00 0.00 62 1014.1
20260507095548 19 10 4.8 17.7 0.00 0.00 0.00 64 1014.1
20260507094545 19 21 3.2 6.4 0.00 0.00 0.00 64 1014.2
20260507093542 19 318 4.8 9.7 0.00 0.00 0.00 64 1014.3
20260507092540 19 349 3.2 20.9 0.00 0.00 0.00 65 1014.3
20260507091537 19 4 3.2 9.7 0.00 0.00 0.00 63 1014.3
20260507090614 19 339 3.2 11.3 0.00 0.00 0.00 62 1014.3
20260507085532 18 347 4.8 12.9 0.00 0.00 0.00 65 1014.2
20260507084529 18 317 3.2 6.4 0.00 0.00 0.00 64 1014.3
20260507083526 18 345 4.8 11.3 0.00 0.00 0.00 62 1014.2
20260507082524 19 354 3.2 9.7 0.00 0.00 0.00 61 1014.2
20260507081521 20 19 3.2 6.4 0.00 0.00 0.00 59 1014.2
20260507080519 20 185 1.6 6.4 0.00 0.00 0.00 59 1014.0
20260507075656 20 81 3.2 6.4 0.00 0.00 0.00 60 1013.8
20260507074614 19 26 1.6 9.7 0.00 0.00 0.00 63 1013.8
20260507073611 18 8 3.2 6.4 0.00 0.00 0.00 64 1014.1
20260507072608 18 21 3.2 6.4 0.00 0.00 0.00 64 1013.9
20260507071606 18 309 1.6 6.4 0.00 0.00 0.00 65 1013.7
20260507070603 17 299 3.2 6.4 0.00 0.00 0.00 67 1013.9
20260507065601 16 73 1.6 6.4 0.00 0.00 0.00 69 1013.8
20260507064558 16 18 1.6 6.4 0.00 0.00 0.00 70 1013.9
20260507063555 15 45 0.0 6.4 0.00 0.00 0.00 71 1013.8
20260507062553 15 0.0 0.0 0.00 0.00 0.00 71 1014.1
20260507061610 15 0.0 0.0 0.00 0.00 0.00 74 1013.9
20260507060548 14 0.0 0.0 0.00 0.00 0.00 76 1013.9
20260507055625 14 0.0 0.0 0.00 0.00 0.00 76 1013.9
20260507054542 13 0.0 0.0 0.00 0.00 0.00 77 1013.8
20260507053540 13 0.0 0.0 0.00 0.00 0.00 78 1013.7
20260507052557 13 0.0 0.0 0.00 0.00 0.00 79 1013.5
20260507051534 13 0.0 0.0 0.00 0.00 0.00 79 1013.4
20260507050532 12 0.0 0.0 0.00 0.00 0.00 79 1013.5
20260507045529 13 0.0 0.0 0.00 0.00 0.00 79 1013.3
20260507044526 13 0.0 0.0 0.00 0.00 0.00 78 1013.3
20260507043524 13 0.0 0.0 0.00 0.00 0.00 78 1013.2
20260507042522 13 0.0 0.0 0.00 0.00 0.00 76 1013.3
20260507041519 13 0.0 3.2 0.00 0.00 0.00 77 1013.2
20260507040516 13 0.0 0.0 0.00 0.00 0.00 77 1013.0
20260507035614 13 0.0 0.0 0.00 0.00 0.00 77 1013.0
20260507034611 13 0.0 0.0 0.00 0.00 0.00 78 1013.1
20260507033608 13 23 0.0 3.2 0.00 0.00 0.00 78 1013.3
20260507032606 13 0.0 3.2 0.00 0.00 0.00 76 1013.4
20260507031604 13 0.0 3.2 0.00 0.00 0.00 76 1013.4
20260507030701 13 0.0 0.0 0.00 0.00 0.00 78 1013.5
20260507025618 13 0.0 0.0 0.00 0.00 0.00 78 1013.5
20260507024556 14 0.0 0.0 0.00 0.00 0.00 78 1013.4
20260507023633 14 68 0.0 3.2 0.00 0.00 0.00 77 1013.8
20260507022611 14 68 0.0 3.2 0.00 0.00 0.00 77 1013.8
20260507021548 14 0.0 0.0 0.00 0.00 0.00 77 1013.7
20260507020605 13 0.0 0.0 0.00 0.00 0.00 78 1013.7
20260507015542 14 0.0 0.0 0.00 0.00 0.00 78 1013.7
20260507014600 13 45 0.0 3.2 0.00 0.00 0.00 81 1013.7
20260507013537 13 0.0 0.0 0.00 0.00 0.00 81 1013.7
20260507012535 13 0.0 0.0 0.00 0.00 0.00 81 1013.7
20260507011532 13 0.0 0.0 0.00 0.00 0.00 81 1013.8
20260507010530 13 0.0 0.0 0.00 0.00 0.00 80 1013.8
20260507005527 14 0.0 0.0 0.00 0.00 0.00 80 1013.9
20260507004524 14 0 0.0 6.4 0.00 0.00 0.00 81 1013.9
20260507003522 13 0.0 0.0 0.00 0.00 0.00 83 1014.0
20260507002519 13 19 1.6 3.2 0.00 0.00 0.00 85 1014.2
20260507001516 13 19 1.6 3.2 0.00 0.00 0.00 84 1014.1
20260507000614 13 0.0 0.0 0.00 0.00 0.00 83 1014.1
20260506235611 14 0.0 0.0 0.00 0.00 0.00 83 1014.4
20260506234609 14 0 0.0 3.2 0.00 0.00 0.00 82 1014.4
20260506233626 14 0 0.0 3.2 0.00 0.00 0.00 81 1014.4
20260506232604 14 0.0 0.0 0.00 0.00 0.00 82 1014.3
20260506231601 14 0 0.0 3.2 0.00 0.00 0.00 82 1014.7
20260506230558 14 0.0 0.0 0.00 0.00 0.00 83 1014.7
20260506225555 14 0 0.0 3.2 0.00 0.00 0.00 83 1014.6
20260506224553 15 0 0.0 3.2 0.00 0.00 0.00 82 1014.6
20260506223550 15 0 1.6 3.2 0.00 0.00 0.00 82 1014.7
20260506222548 15 0 0.0 3.2 0.00 0.00 0.00 81 1014.8
20260506221545 14 0 1.6 3.2 0.00 0.00 0.00 83 1014.7
20260506220543 15 6 1.6 6.4 0.00 0.00 0.00 82 1014.9
20260506215540 15 0 0.0 3.2 0.00 0.00 0.00 81 1015.0
20260506214558 15 16 1.6 6.4 0.00 0.00 0.00 82 1015.0
20260506213535 15 20 1.6 6.4 0.00 0.00 0.00 82 1015.2
20260506212532 15 7 0.0 3.2 0.00 0.00 0.00 82 1015.0
20260506211529 15 357 1.6 3.2 0.00 0.00 0.00 82 1014.9
20260506210527 15 4 1.6 6.4 0.00 0.00 0.00 82 1014.8
20260506205524 15 10 1.6 6.4 0.00 0.00 0.00 82 1014.9
20260506204522 15 15 0.0 3.2 0.00 0.00 0.00 81 1014.7
20260506203519 15 311 1.6 6.4 0.00 0.00 0.00 81 1014.6
20260506202516 15 83 1.6 6.4 0.00 0.00 0.00 81 1014.3
20260506201634 15 349 1.6 6.4 0.00 0.00 0.00 81 1014.3
20260506200612 15 139 1.6 3.2 0.00 0.00 0.00 81 1014.2
20260506195609 15 158 1.6 6.4 0.00 0.00 0.00 81 1014.0
20260506194606 15 63 1.6 3.2 0.00 0.00 0.00 81 1013.9
20260506193604 15 187 0.0 3.2 0.00 0.00 0.00 80 1013.8
20260506192601 15 208 3.2 6.4 0.00 0.00 0.00 80 1013.6
20260506191618 16 137 3.2 6.4 0.00 0.00 0.00 81 1013.6
20260506190616 16 312 1.6 6.4 0.00 0.00 0.00 80 1013.5
20260506185553 16 0 0.0 3.2 0.00 0.00 0.00 80 1013.4
20260506184551 16 116 3.2 6.4 0.00 0.00 0.00 79 1013.4
20260506183548 16 137 1.6 3.2 0.00 0.00 0.00 78 1013.4
20260506182545 16 143 3.2 9.7 0.00 0.00 0.00 78 1013.3
20260506181543 16 136 3.2 9.7 0.00 0.00 0.00 78 1013.4
20260506180540 16 82 4.8 12.9 0.00 0.00 0.00 78 1013.3
20260506175538 17 309 1.6 6.4 0.00 0.00 0.00 78 1013.2
20260506174535 17 197 4.8 11.3 0.00 0.00 0.00 77 1013.3
20260506173552 17 139 3.2 6.4 0.00 0.00 0.00 75 1013.3
20260506172529 17 137 4.8 12.9 0.00 0.00 0.00 74 1013.2
20260506171527 18 101 6.4 20.9 0.00 0.00 0.00 72 1013.3
20260506170524 18 97 3.2 14.5 0.00 0.00 0.00 71 1013.3
20260506165522 19 33 4.8 12.9 0.00 0.00 0.00 70 1013.1
20260506164519 19 65 3.2 6.4 0.00 0.00 0.00 69 1013.2
20260506163516 19 32 4.8 11.3 0.00 0.00 0.00 69 1013.2
20260506162614 20 233 4.8 11.3 0.00 0.00 0.00 67 1013.2
20260506161651 20 324 3.2 11.3 0.00 0.00 0.00 66 1013.0
20260506160609 20 23 3.2 9.7 0.00 0.00 0.00 64 1013.0
20260506155606 20 22 4.8 14.5 0.00 0.00 0.00 67 1013.0
20260506154604 19 100 4.8 12.9 0.00 0.00 0.00 67 1013.0
20260506153741 18 119 4.8 9.7 0.00 0.00 0.00 69 1013.0
20260506152559 20 20 4.8 11.3 0.00 0.00 0.00 66 1013.0
20260506151556 19 354 4.8 12.9 0.00 0.00 0.00 67 1012.9
20260506150634 20 5 6.4 17.7 0.00 0.00 0.00 65 1012.9
20260506145551 19 333 4.8 17.7 0.00 0.00 0.00 69 1013.0
20260506144548 19 296 4.8 11.3 0.00 0.00 0.00 70 1013.2
20260506143545 18 350 4.8 12.9 0.00 0.00 0.00 70 1013.3
20260506142543 19 356 4.8 14.5 0.00 0.00 0.00 69 1013.2